[[{"header":{"parameterUnit":"m.s-1","parameterCategory":1,"la1":30.2991,"la2":30.254,"lo1":-89.0895,"lo2":-89.0444,"dy":0.0017,"dx":0.0017,"nx":28,"ny":28,"refTime":"2024-06-23T09:00:00:Z","depth":0,"parameterNumber":2,"parameterNumberName":"U-component_of_WINDS"},"data":[0,0,0,0,0,0,0,0,0,0,0,0,0,0,0,0,0,0,0,0,0,0,0,0,0,0,0,0,0,0,0,0,0,0,0,0,0,0,0,0,0,0,0,0,0,0,0,0,0,0,0,0,0,0,0,0,0,0,2.3918,2.3919,0,2.3974,2.3974,2.3975,2.3969,2.3968,2.3967,2.3966,2.4022,2.4024,2.4027,0,0,0,0,0,0,0,0,0,0,0,0,0,2.3806,2.3808,2.3918,2.3919,2.392,2.3974,2.3974,2.3975,2.3969,2.3968,2.3967,2.3966,2.4021,2.4024,2.4027,0,0,0,0,0,0,0,0,0,0,0,0,0,2.3857,2.3809,2.3918,2.3923,2.3924,2.3973,2.3974,2.3975,2.3969,2.3968,2.3967,2.3965,2.4021,2.4024,2.4027,2.4075,0,0,2.4038,2.4039,0,0,0,0,0,0,0,0,2.3854,2.3861,2.3922,2.3923,2.3924,2.3963,2.3955,2.4009,2.397,2.3952,2.3966,2.3965,2.4004,2.4008,2.4022,2.4078,2.408,2.4038,2.404,2.4042,2.4043,0,0,0,0,0,0,0,2.3851,2.3859,2.394,2.3923,2.3924,2.3922,2.3928,2.3965,2.3984,2.3953,2.3953,2.396,2.4004,2.4018,2.4023,2.4081,2.4038,2.4041,2.4043,2.4045,2.4177,2.4179,0,0,0,0,0,0,2.3846,2.3856,2.3938,2.3942,2.3885,2.3925,2.3932,2.3952,2.3984,2.3988,2.3961,2.3959,2.4013,2.4019,2.4025,2.4082,2.4042,2.4045,2.4047,2.4176,2.4178,2.4179,0,0,0,0,0,0,2.3844,2.3854,2.3936,2.3899,2.3909,2.3929,2.3951,2.3954,2.3968,2.399,2.3993,2.3972,2.4012,2.402,2.4062,2.4084,2.4047,2.405,2.4174,2.4176,2.4178,2.4196,0,0,0,0,0,0,2.3841,2.3853,2.3871,2.3899,2.3911,2.3973,2.3952,2.3956,2.3974,2.3972,2.4001,2.4004,2.4012,2.4057,2.4066,2.4088,2.4052,2.4172,2.4175,2.4178,2.4194,2.4199,2.4203,0,0,0,0,0,2.3837,2.3874,2.3872,2.3882,2.3935,2.3974,2.3981,2.3989,2.3976,2.3994,2.4008,2.4004,2.408,2.4062,2.4071,2.4094,2.4171,2.4174,2.4178,2.4192,2.4198,2.4203,0,0,0,0,0,0,2.3849,2.3878,2.3876,2.3924,2.3947,2.3973,2.3997,2.3995,2.4022,2.4019,2.4028,2.4034,2.4077,2.409,2.4069,2.4142,2.4124,2.4129,2.4131,2.4137,2.4142,2.4137,2.4055,0,0,0,0,0,2.3857,2.3887,2.3911,2.3951,2.3962,2.3978,2.3995,2.3999,2.4023,2.4032,2.4049,2.4072,2.4101,2.412,2.4148,2.4196,2.4202,2.4217,2.4221,2.4225,2.4229,2.4254,2.4261,2.419,2.419,2.419,0,0,2.3874,2.3894,2.3912,2.3954,2.3972,2.4002,2.3986,2.4019,2.4041,2.4037,2.4078,2.4091,2.4117,2.4162,2.4183,2.4175,2.425,2.4229,2.4232,2.4234,2.4258,2.4265,2.4271,2.4192,2.4192,2.4191,0,0,2.3921,2.3939,2.3974,2.3992,2.4019,2.4029,2.4038,2.4064,2.4073,2.4114,2.4112,2.4138,2.4188,2.4206,2.4222,2.4275,2.4271,2.4284,2.4308,2.4332,2.4338,2.4343,2.436,2.4367,2.4288,2.4288,2.4288,0,2.3938,2.3984,2.3992,2.4025,2.4043,2.4041,2.4076,2.4093,2.4128,2.414,2.413,2.4192,2.421,2.4259,2.4271,2.4285,2.4294,2.428,2.4336,2.4341,2.4346,2.4363,2.437,2.429,2.4289,2.4289,2.4289,0,2.4004,2.4036,2.406,2.4094,2.4115,2.4149,2.4161,2.4181,2.4183,2.4194,2.4235,2.4256,2.4287,2.43,2.4302,2.4349,2.4342,2.4334,2.4316,2.4354,2.437,2.4377,2.4291,2.4291,2.4291,2.429,0,0,2.406,2.4097,2.4106,2.412,2.415,2.4174,2.4208,2.4239,2.4255,2.4279,2.4307,2.4349,2.4341,2.4359,2.4364,2.4386,2.4424,2.4375,2.4376,2.4382,2.4476,2.4481,2.4488,2.4423,2.4424,2.4425,2.4473,0,2.4108,2.4167,2.4175,2.4227,2.4256,2.4254,2.4283,2.4304,2.4315,2.434,2.4352,2.4381,2.437,2.4381,2.4402,2.4415,2.4443,2.4412,2.4447,2.4449,2.444,2.4497,2.4502,2.4547,2.4479,2.4481,2.4481,0,2.4173,2.4198,2.4253,2.4278,2.429,2.4316,2.4345,2.4369,2.4393,2.4399,2.4419,2.442,2.4454,2.4435,2.4481,2.446,2.4475,2.4483,2.4485,2.4488,2.4466,2.45,2.4561,2.4567,2.4491,2.4491,2.449,0,2.4206,2.4255,2.4293,2.4306,2.4336,2.4354,2.4368,2.439,2.4408,2.4433,2.4444,2.4473,2.4488,2.451,2.4519,2.4504,2.4564,2.4546,2.4569,2.4569,2.4581,2.458,2.4644,2.4593,2.4592,2.4592,2.4592,0,2.4259,2.4292,2.4309,2.4332,2.4369,2.4378,2.4414,2.4426,2.4446,2.4472,2.4472,2.4496,2.4507,2.4533,2.454,2.4576,2.4584,2.4589,2.459,2.4588,2.4588,2.4598,2.4594,2.4594,2.4594,2.4593,2.4593,0,2.4302,2.4315,2.4357,2.4382,2.4389,2.4415,2.4436,2.4459,2.4469,2.4501,2.451,2.4526,2.4556,2.4567,2.4604,2.4609,2.465,2.465,2.4642,2.4642,2.4664,2.4662,2.4737,2.4746,2.4689,2.469,2.469,0,2.4335,2.436,2.4388,2.4405,2.4419,2.4447,2.4465,2.4474,2.4493,2.4521,2.454,2.457,2.4594,2.4642,2.4657,2.4685,2.4684,2.4709,2.4688,2.4685,2.4683,2.4681,2.4683,2.4712,2.4713,2.4713,2.4713,0,2.4391,2.4395,2.4421,2.4449,2.4471,2.4493,2.4515,2.4529,2.4542,2.4562,2.4593,2.4612,2.4649,2.4678,2.4707,2.472,2.4718,2.472,2.4726,2.4724,2.4718,2.472,2.4651,2.4718,2.4717,2.4717,2.4717,2.4717,2.4429,2.4451,2.4474,2.4502,2.452,2.454,2.4562,2.4575,2.4601,2.4632,2.4636,2.4668,2.469,2.4728,2.4743,2.4768,2.4761,2.4771,2.4773,2.4775,2.4776,2.4715,2.4773,2.4773,2.4773,2.4773,2.4773,0,2.4483,2.4498,2.4524,2.4555,2.4577,2.4574,2.4598,2.4616,2.4645,2.4666,2.469,2.4724,2.4753,2.477,2.4798,2.4815,2.4815,2.4822,2.482,2.4823,2.4781,2.4772,2.4821,2.4821,2.4821,2.4821,2.4821,2.4821,2.4514,2.4551,2.4559,2.4604,2.4618,2.465,2.4663,2.4682,2.4698,2.4737,2.476,2.4771,2.479,2.482,2.4845,2.4849,2.4859,2.4867,2.487,2.4831,2.4826,2.4821,2.4812,2.4869,2.4869,2.4909,2.491,2.491]},{"header":{"parameterUnit":"m.s-1","parameterCategory":1,"la1":30.2991,"la2":30.254,"lo1":-89.0895,"lo2":-89.0444,"dy":0.0017,"dx":0.0017,"nx":28,"ny":28,"refTime":"2024-06-23T09:00:00:Z","depth":0,"parameterNumber":3,"parameterNumberName":"V-component_of_WINDS"},"data":[0,0,0,0,0,0,0,0,0,0,0,0,0,0,0,0,0,0,0,0,0,0,0,0,0,0,0,0,0,0,0,0,0,0,0,0,0,0,0,0,0,0,0,0,0,0,0,0,0,0,0,0,0,0,0,0,0,0,0.0997,0.0997,0,0.103,0.103,0.1031,0.1045,0.1045,0.1044,0.1044,0.108,0.1081,0.1082,0,0,0,0,0,0,0,0,0,0,0,0,0,0.0946,0.0947,0.0997,0.0997,0.0997,0.103,0.103,0.1031,0.1045,0.1045,0.1044,0.1044,0.1079,0.108,0.1082,0,0,0,0,0,0,0,0,0,0,0,0,0,0.0973,0.0947,0.0997,0.1008,0.101,0.103,0.103,0.1031,0.1045,0.1045,0.1044,0.1044,0.1079,0.108,0.1082,0.1093,0,0,0.1086,0.1087,0,0,0,0,0,0,0,0,0.0971,0.0974,0.1006,0.1007,0.1009,0.1033,0.1025,0.1052,0.1045,0.1031,0.1044,0.1044,0.1064,0.1067,0.1073,0.1095,0.1096,0.1087,0.1087,0.1088,0.1089,0,0,0,0,0,0,0,0.0969,0.0973,0.101,0.1007,0.1008,0.1012,0.1016,0.103,0.1048,0.1033,0.1034,0.1037,0.1065,0.1072,0.1074,0.1097,0.1086,0.1088,0.1089,0.1089,0.1128,0.1129,0,0,0,0,0,0,0.0965,0.0971,0.1009,0.1011,0.0989,0.1013,0.1017,0.1025,0.1048,0.1051,0.1037,0.1038,0.1069,0.1073,0.1076,0.109,0.1088,0.1089,0.109,0.1128,0.1128,0.1129,0,0,0,0,0,0,0.0964,0.0969,0.1007,0.0991,0.0997,0.1014,0.1023,0.1026,0.1033,0.1051,0.1055,0.1041,0.1069,0.1074,0.1088,0.1092,0.109,0.1092,0.1128,0.1128,0.1129,0.1119,0,0,0,0,0,0,0.0963,0.0968,0.0972,0.0991,0.0997,0.1019,0.1023,0.1027,0.1035,0.1036,0.1056,0.1059,0.107,0.1086,0.109,0.1094,0.1093,0.1128,0.1128,0.1128,0.1119,0.1119,0.1119,0,0,0,0,0,0.0961,0.0969,0.0972,0.0977,0.1003,0.1019,0.1023,0.1035,0.1036,0.104,0.1052,0.1058,0.109,0.1087,0.1092,0.1096,0.1128,0.1128,0.1128,0.1119,0.1119,0.1119,0,0,0,0,0,0,0.095,0.0971,0.0976,0.099,0.1003,0.1022,0.1028,0.1034,0.1047,0.1048,0.1062,0.1066,0.108,0.1089,0.1086,0.1108,0.111,0.1111,0.1101,0.1101,0.1101,0.1098,0.1094,0,0,0,0,0,0.0949,0.096,0.0979,0.0989,0.0995,0.101,0.1018,0.1026,0.104,0.1046,0.1058,0.1072,0.1085,0.1094,0.1107,0.112,0.1125,0.1125,0.1125,0.1125,0.1126,0.1134,0.1134,0.113,0.113,0.113,0,0,0.0948,0.0961,0.0967,0.0987,0.0998,0.101,0.1015,0.1027,0.1036,0.1048,0.1062,0.1072,0.1088,0.1102,0.1109,0.1111,0.1128,0.1125,0.1125,0.1126,0.1134,0.1135,0.1135,0.113,0.113,0.113,0,0,0.0951,0.0962,0.0972,0.0983,0.0999,0.1009,0.1011,0.1029,0.1036,0.1051,0.106,0.107,0.1093,0.1104,0.1112,0.1119,0.1125,0.1123,0.1122,0.1129,0.113,0.113,0.1132,0.1133,0.1124,0.1124,0.1124,0,0.0948,0.0965,0.0977,0.0988,0.0997,0.1007,0.1017,0.1027,0.1047,0.1053,0.1054,0.1082,0.1093,0.111,0.1112,0.1118,0.1122,0.1121,0.1128,0.1129,0.113,0.1132,0.1133,0.1123,0.1123,0.1123,0.1123,0,0.096,0.0972,0.0978,0.0996,0.1005,0.1016,0.103,0.1038,0.1044,0.1054,0.1069,0.1083,0.1099,0.1104,0.1111,0.1122,0.1122,0.1126,0.1128,0.1129,0.1132,0.1133,0.1123,0.1123,0.1123,0.1123,0,0,0.0958,0.0982,0.0984,0.0992,0.101,0.102,0.1031,0.1046,0.1053,0.1066,0.1076,0.1094,0.1097,0.1107,0.1115,0.1122,0.1126,0.1125,0.1125,0.1124,0.1139,0.1136,0.1137,0.113,0.1131,0.1131,0.1138,0,0.0964,0.0984,0.0995,0.1011,0.1022,0.1031,0.1041,0.1053,0.1063,0.1074,0.1084,0.1097,0.11,0.1106,0.1113,0.1124,0.1129,0.1124,0.114,0.114,0.1136,0.1139,0.1136,0.1142,0.1139,0.1139,0.1139,0,0.0974,0.0986,0.1003,0.1019,0.1024,0.1033,0.1048,0.1058,0.1072,0.1078,0.1088,0.1096,0.1109,0.111,0.1127,0.1123,0.113,0.1137,0.1137,0.1139,0.114,0.1141,0.1144,0.1145,0.1141,0.1141,0.1141,0,0.0971,0.0992,0.1005,0.1011,0.1031,0.1036,0.1045,0.1059,0.1067,0.108,0.1085,0.1099,0.1107,0.1118,0.113,0.1129,0.1146,0.1148,0.1152,0.1151,0.1155,0.1155,0.116,0.1159,0.1159,0.1159,0.1159,0,0.0977,0.0987,0.1003,0.1011,0.1023,0.1034,0.1045,0.1055,0.1067,0.1077,0.1086,0.1095,0.111,0.1121,0.113,0.1143,0.1147,0.1152,0.1155,0.1152,0.1151,0.1157,0.1157,0.116,0.116,0.1159,0.1159,0,0.0976,0.0988,0.1002,0.1019,0.1023,0.1031,0.1045,0.1053,0.1063,0.1075,0.1079,0.1094,0.1107,0.112,0.1138,0.1144,0.1157,0.116,0.1152,0.1154,0.1157,0.1156,0.1166,0.1168,0.1166,0.1166,0.1166,0,0.0979,0.0987,0.1004,0.1011,0.1019,0.1031,0.1039,0.1051,0.1059,0.1075,0.1081,0.1095,0.1107,0.1128,0.1141,0.1155,0.1158,0.1161,0.1161,0.1157,0.1159,0.1158,0.1159,0.116,0.116,0.116,0.116,0,0.0984,0.0989,0.1,0.1013,0.1023,0.1034,0.1045,0.105,0.1064,0.1073,0.1087,0.1096,0.1114,0.1128,0.1143,0.1152,0.1159,0.116,0.1162,0.1159,0.1154,0.1157,0.1152,0.116,0.116,0.116,0.116,0.116,0.0985,0.0992,0.1005,0.1018,0.1027,0.1038,0.1046,0.1056,0.1067,0.1082,0.1089,0.1102,0.1116,0.1137,0.1146,0.1157,0.1158,0.1161,0.1161,0.1162,0.1161,0.1152,0.116,0.116,0.116,0.116,0.116,0,0.099,0.0999,0.101,0.1025,0.1035,0.1039,0.1052,0.106,0.1071,0.1083,0.1094,0.111,0.1123,0.1137,0.1151,0.1157,0.116,0.116,0.116,0.1162,0.1159,0.1156,0.1157,0.1157,0.1157,0.1157,0.1157,0.1157,0.0994,0.1006,0.1013,0.103,0.1039,0.1052,0.1058,0.1068,0.1077,0.1094,0.1105,0.1113,0.1126,0.1141,0.1153,0.1157,0.1162,0.1161,0.1165,0.1162,0.1162,0.1163,0.116,0.1162,0.1162,0.1167,0.1167,0.1167]}]]